This is the latest recevied weather packets stored in our database for station/object OK1FET-5. If no packets are shown the sender has not sent any weather packets the latest 1 day(s).
| Time | Temp. | Humidity | Pressure | Rain* | Wind** | Luminosity | Snow |
|---|---|---|---|---|---|---|---|
| 1778080668 | 21.67° C | 46% | 1005.9 hPa | - | - | - | - |
| 1778080373 | 21.11° C | 47% | 1006 hPa | - | - | - | - |
| 1778080078 | 21.11° C | 48% | 1006 hPa | - | - | - | - |
| 1778078012 | 21.67° C | 47% | 1006.1 hPa | - | - | - | - |
| 1778077422 | 22.22° C | 48% | 1006 hPa | - | - | - | - |
| 1778076536 | 23.33° C | 47% | 1006.2 hPa | - | - | - | - |
| 1778075058 | 25° C | 50% | 1006.3 hPa | - | - | - | - |
| 1778074171 | 25° C | 49% | 1006.4 hPa | - | - | - | - |
| 1778072693 | 23.89° C | 51% | 1007 hPa | - | - | - | - |
| 1778071806 | 25° C | 49% | 1007.1 hPa | - | - | - | - |
| 1778070623 | 26.11° C | 55% | 1007.2 hPa | - | - | - | - |
| 1778070327 | 26.67° C | 53% | 1007.3 hPa | - | - | - | - |
| 1778069440 | 25° C | 55% | 1007.2 hPa | - | - | - | - |
| 1778067666 | 25° C | 57% | 1007.2 hPa | - | - | - | - |
| 1778067075 | 24.44° C | 57% | 1007.4 hPa | - | - | - | - |
| 1778066484 | 23.89° C | 57% | 1007.5 hPa | - | - | - | - |
| 1778065302 | 22.78° C | 57% | 1007.5 hPa | - | - | - | - |
| 1778065007 | 23.33° C | 55% | 1007.4 hPa | - | - | - | - |
| 1778064711 | 23.33° C | 57% | 1007.5 hPa | - | - | - | - |
| 1778064416 | 22.22° C | 59% | 1007.5 hPa | - | - | - | - |
| 1778063235 | 21.67° C | 60% | 1007.5 hPa | - | - | - | - |
| 1778062940 | 21.67° C | 61% | 1007.7 hPa | - | - | - | - |
| 1778061464 | 21.11° C | 62% | 1007.7 hPa | - | - | - | - |
| 1778059693 | 20° C | 65% | 1007.5 hPa | - | - | - | - |
| 1778059398 | 20.56° C | 64% | 1007.3 hPa | - | - | - | - |
* Rain since midnight (hover to see other rain measurements)
** Current wind speed in m/s (hover to see current wind gust speed)